SL-16 DEB, 29097

Orbit data source: Space-Track

SL-16 DEB, 29097 is space debris in LEO originally from a launch on Fri, 26 Mar 1993 UTC launched from the Tyuratam Missile And Space Complex (TTMTR). Debris objects in space refer to the collection of defunct objects orbiting the Earth. Examples of debris include non-operational satellites, rocket bodies, and fragments generated from explosions, collisions, or faulty payload assembly.

Loading next visibility...
Identifier
29097, 1993-016AL
Orbit
LEO
Country
Flag of CISCIS
Related business
Manufacturer
Unknown
Mission
Spacecraft
Bus & Motor
Unknown
Mass
Unknown
Launch date (UTC)
1993-03-26 (33 years ago)
Launch vehicle
Unknown
Launch site
Tyuratam Missile And Space Complex (TTMTR)
Object type
Payload
Rocket body
Debris
Shape & HBR
Unknown shape, 0.1 m
Radar Cross Section
Small (<0.1 m²)

Expand to show TLE details & history
Last TLE update: 1 day ago

TLE from 1 day ago
0 SL-16 DEB
1 29097U 93016AL  26037.10756765  .00000114  00000-0  11165-3 0  9994
2 29097  71.0045  81.4043 0123205  76.8706 315.2452 13.94566791255873
Epoch: 2026-02-06T02:34Z
TLE epoch observation values (Epoch: 2026-02-06T02:34:53.844Z)
Latitude
29.30393°
Longitude
-82.48975°
Altitude
852.539 km
Speed
7.461 km/s
True Right ascension
06h 09m 56s
True Declination
29° 09' 34"
Sunlit
Object was in full shadow at epoch
Visualization orbit readout
Latitude
Unknown
Longitude
Unknown
Altitude
Unknown
Speed
Unknown
Apparent Right ascension
Unknown
Apparent Declination
Unknown
Sunlit
N/A
Visualization observer readout
Local Sidereal Time
04:30:25
Azimuth
Unknown
Elevation
Unknown
Doppler factor
Unknown
Orbital elements
Apogee altitude
1,000.416 km
Perigee altitude
820.813 km
Semi-major axis
7,288.752 km
Eccentricity
0.01232
Inclination
71.0045°
RAAN
81.4043°
Arg. of periapsis
76.8706°
True anomaly
314.24024°
Mean anomaly
315.2452°
Eccentric anomaly
314.74382°
Mean motion
3.4879 °/min
Orbital period
103.21 mins
BSTAR
0.00011165
Loading maneuver chart data...
Computing Atmospheric mass density...
Loading historical data...
Loading historical data...
Loading historical data...
Loading historical data...
Loading historical data...
Loading historical data...
Loading historical data...

Documentation

Showing up to 5 results
|